KFPRKEYW

Guest
Details From KFPR - St Lucie Co Intl
To KEYW - Key West Intl
Flight Number -
Tags generated
Created
Modified
Stats Distance 192 nm / 356 km
Max Altitude 20,900 ft / 6,370 m
Waypoints 3
Social Downloads 0
Likes 0
Share VATSIM

Download

Looking for another format? Having issues loading an existing format? Contact us
Advertisement - Login to hide

Notes

Basic altitude profile: - Ascent Rate: 750ft/min - Ascent Speed: 250kts - Cruise Altitude: 10000ft - Cruise Speed: 420kts - Descent Rate: 500ft/min - Descent Speed: 250kts Options: - Use NATs: yes - Use PACOTS: yes - Use low airways: no - Use high airways: yes

Route

KFPR KUBIC KEYW

ID Type Via Altitude Latitude Longitude Leg Dist Tot Dist Heading (true) Name
O KFPR APT - 0 ft / 0 m 27.49466˚ -80.36807˚ - 0 nm - St Lucie Co Intl
KUBIC FIX - 20,900 ft / 6,370 m 26.09766˚ -80.94952˚ 89 nm 89 nm 201° / 200° -
O KEYW APT - 0 ft / 0 m 24.55612˚ -81.75955˚ 102 nm 191 nm 206° / 205° Key West Intl

Altitude Profile

Advertisement - Login to hide

Weather


0- 5 10 15 20 25 30 35+ Temperature / ° C

Clouds and Precipitation
Forecast for 2017-12-17 06:00 UTC. Updated an hour ago

Ground ~20,000 ft ~40,000 ft Winds

KFPR

Details ICAO KFPR (FRP)
Name St Lucie Co Intl
Region United States
Timezone America/New_York (UTC-5.0)
Stats Elevation 23 ft / 7 m (AMSL)
Location 27.494664° -80.368073°
Runways 2
Magnetic Variation 6.850° W

METAR

KFPR 170153Z 35003KT 10SM CLR 17/16 A3024 RMK AO2 SLP238 T01720161 $

Decode

TAF

TAF KFPR 162332Z 1700/1724 01004KT P6SM SKC FM170300 00000KT 6SM BR FEW012 SCT250 TEMPO 1708/1712 2SM BR SCT008 FM171500 13006KT P6SM FEW030 FM171800 13009KT P6SM FEW040 BKN250

Decode

Departure Runways

ID Width Length Bearing (true) Bearing (mag) Surface Threshold Offset Overrun Length
09 150 ft / 46 m 6,481 ft / 1,975 m 90.47° 97.32° Asphalt 0 ft / 0 m 200 ft / 61 m
14 100 ft / 30 m 4,762 ft / 1,451 m 135.63° 142.48° Asphalt 0 ft / 0 m 0 ft / 0 m
27 150 ft / 46 m 6,481 ft / 1,975 m 270.48° 277.33° Asphalt 0 ft / 0 m 200 ft / 61 m
32 100 ft / 30 m 4,762 ft / 1,451 m 315.63° 322.48° Asphalt 0 ft / 0 m 0 ft / 0 m

KEYW

Details ICAO KEYW (EYW)
Name Key West Intl
Region United States
Timezone America/New_York (UTC-5.0)
Stats Elevation 2 ft / 1 m (AMSL)
Location 24.556124° -81.759546°
Runways 1
Magnetic Variation 5.546° W

METAR

KEYW 170153Z AUTO 05006KT 10SM CLR 22/18 A3019 RMK AO2 SLP222 T02220183

Decode

TAF

TAF KEYW 162331Z 1700/1724 07011G19KT P6SM FEW025 SCT250 FM170900 08013G20KT P6SM FEW020 SCT040 SCT250

Decode

Destination Runways

ID Width Length Bearing (true) Bearing (mag) Surface Threshold Offset Overrun Length
09 100 ft / 30 m 4,794 ft / 1,461 m 89.38° 94.93° Asphalt 151 ft / 46 m 0 ft / 0 m
27 100 ft / 30 m 4,794 ft / 1,461 m 269.39° 274.94° Asphalt 151 ft / 46 m 0 ft / 0 m

Popular Alternatives